Private Wetterstation Sandau
Wetterdaten: Mittwoch, 17.10.2012
Datum Zeit Temp. A. Feuchte A. Luftdruck Regen Wind Richtung Richtung Taupunkt Windchill
17.10.2012 00:01 8,6 C 81 % 1010,7 hPa 0,0 l/m 7,9 km/h (2 Bft) SW 225 5,5 C 7,4 C
17.10.2012 00:06 8,6 C 81 % 1010,8 hPa 0,0 l/m 7,6 km/h (2 Bft) S-SW 202 5,5 C 7,5 C
17.10.2012 00:11 8,5 C 82 % 1010,8 hPa 0,0 l/m 4,0 km/h (1 Bft) SW 225 5,6 C 8,5 C
17.10.2012 00:16 8,4 C 82 % 1010,9 hPa 0,0 l/m 6,1 km/h (2 Bft) S-SW 202 5,5 C 7,6 C
17.10.2012 00:21 8,4 C 82 % 1011,0 hPa 0,0 l/m 6,1 km/h (2 Bft) W-SW 247 5,5 C 7,6 C
17.10.2012 00:26 8,4 C 82 % 1011,0 hPa 0,0 l/m 8,6 km/h (2 Bft) SW 225 5,5 C 7,0 C
17.10.2012 00:31 8,3 C 82 % 1011,0 hPa 0,0 l/m 6,1 km/h (2 Bft) SW 225 5,4 C 7,5 C
17.10.2012 00:36 8,2 C 82 % 1011,1 hPa 0,0 l/m 6,5 km/h (2 Bft) W-SW 247 5,3 C 7,3 C
17.10.2012 00:41 8,2 C 83 % 1011,2 hPa 0,0 l/m 7,9 km/h (2 Bft) SW 225 5,5 C 6,9 C
17.10.2012 00:46 8,2 C 83 % 1011,3 hPa 0,0 l/m 5,4 km/h (1 Bft) W-SW 247 5,5 C 7,6 C
17.10.2012 00:51 8,1 C 83 % 1011,3 hPa 0,0 l/m 8,3 km/h (2 Bft) SW 225 5,4 C 6,7 C
17.10.2012 00:56 8,1 C 83 % 1011,2 hPa 0,0 l/m 4,0 km/h (1 Bft) S-SW 202 5,4 C 8,1 C
17.10.2012 01:01 8,1 C 83 % 1011,3 hPa 0,0 l/m 5,0 km/h (1 Bft) W-SW 247 5,4 C 7,6 C
17.10.2012 01:06 8,0 C 83 % 1011,3 hPa 0,0 l/m 7,9 km/h (2 Bft) SW 225 5,3 C 6,7 C
17.10.2012 01:11 7,9 C 83 % 1011,5 hPa 0,0 l/m 6,5 km/h (2 Bft) W-SW 247 5,2 C 6,9 C
17.10.2012 01:16 7,9 C 83 % 1011,6 hPa 0,0 l/m 7,9 km/h (2 Bft) W-SW 247 5,2 C 6,6 C
17.10.2012 01:21 7,8 C 83 % 1011,6 hPa 0,0 l/m 3,6 km/h (1 Bft) W-SW 247 5,1 C 7,8 C
17.10.2012 01:26 7,8 C 83 % 1011,6 hPa 0,0 l/m 6,8 km/h (2 Bft) W-SW 247 5,1 C 6,7 C
17.10.2012 01:31 7,8 C 84 % 1011,7 hPa 0,0 l/m 6,1 km/h (2 Bft) W-SW 247 5,3 C 6,9 C
17.10.2012 01:36 7,6 C 84 % 1011,6 hPa 0,0 l/m 4,3 km/h (1 Bft) S-SW 202 5,1 C 7,6 C
17.10.2012 01:41 7,5 C 84 % 1011,6 hPa 0,0 l/m 4,3 km/h (1 Bft) SW 225 5,0 C 7,5 C
17.10.2012 01:46 7,4 C 84 % 1011,7 hPa 0,0 l/m 3,2 km/h (1 Bft) SW 225 4,9 C 7,4 C
17.10.2012 01:51 7,3 C 84 % 1011,8 hPa 0,0 l/m 3,2 km/h (1 Bft) S 180 4,8 C 7,3 C
17.10.2012 01:56 7,2 C 84 % 1011,9 hPa 0,0 l/m 5,8 km/h (2 Bft) W-SW 247 4,7 C 6,3 C
17.10.2012 02:01 7,1 C 84 % 1012,0 hPa 0,0 l/m 3,2 km/h (1 Bft) S-SW 202 4,6 C 7,1 C
17.10.2012 02:06 7,1 C 84 % 1012,0 hPa 0,0 l/m 3,2 km/h (1 Bft) S 180 4,6 C 7,1 C
17.10.2012 02:11 7,0 C 85 % 1012,0 hPa 0,0 l/m 3,2 km/h (1 Bft) S 180 4,7 C 7,0 C
17.10.2012 02:16 6,9 C 85 % 1012,1 hPa 0,0 l/m 4,0 km/h (1 Bft) SW 225 4,6 C 6,9 C
17.10.2012 02:21 6,9 C 85 % 1012,1 hPa 0,0 l/m 2,2 km/h (1 Bft) SW 225 4,6 C 6,9 C
17.10.2012 02:26 6,9 C 85 % 1012,2 hPa 0,0 l/m 7,9 km/h (2 Bft) S-SW 202 4,6 C 5,4 C
17.10.2012 02:31 6,9 C 85 % 1012,2 hPa 0,0 l/m 4,7 km/h (1 Bft) W-SW 247 4,6 C 6,3 C
17.10.2012 02:36 6,9 C 85 % 1012,0 hPa 0,0 l/m 3,2 km/h (1 Bft) S-SW 202 4,6 C 6,9 C
17.10.2012 02:41 6,8 C 86 % 1012,1 hPa 0,0 l/m 3,6 km/h (1 Bft) S-SW 202 4,6 C 6,8 C
17.10.2012 02:46 6,8 C 86 % 1012,1 hPa 0,0 l/m 2,9 km/h (1 Bft) S-SW 202 4,6 C 6,8 C
17.10.2012 02:51 6,8 C 86 % 1012,2 hPa 0,0 l/m 4,7 km/h (1 Bft) S-SW 202 4,6 C 6,2 C
17.10.2012 02:56 6,7 C 86 % 1012,1 hPa 0,0 l/m 3,6 km/h (1 Bft) S-SW 202 4,5 C 6,7 C
17.10.2012 03:01 6,6 C 86 % 1012,2 hPa 0,0 l/m 5,0 km/h (1 Bft) S-SW 202 4,4 C 5,9 C
17.10.2012 03:06 6,6 C 86 % 1012,2 hPa 0,0 l/m 7,2 km/h (2 Bft) SW 225 4,4 C 5,2 C
17.10.2012 03:11 6,5 C 86 % 1012,3 hPa 0,0 l/m 4,7 km/h (1 Bft) S-SW 202 4,3 C 5,9 C
17.10.2012 03:16 6,4 C 86 % 1012,1 hPa 0,0 l/m 8,3 km/h (2 Bft) SW 225 4,2 C 4,7 C
17.10.2012 03:21 6,4 C 86 % 1012,2 hPa 0,0 l/m 8,3 km/h (2 Bft) SW 225 4,2 C 4,7 C
17.10.2012 03:26 6,4 C 86 % 1012,2 hPa 0,0 l/m 3,2 km/h (1 Bft) S-SW 202 4,2 C 6,4 C
17.10.2012 03:31 6,3 C 87 % 1012,2 hPa 0,0 l/m 2,5 km/h (1 Bft) SW 225 4,3 C 6,3 C
17.10.2012 03:36 6,3 C 87 % 1012,2 hPa 0,0 l/m 5,0 km/h (1 Bft) S 180 4,3 C 5,6 C
17.10.2012 03:41 6,3 C 87 % 1012,3 hPa 0,0 l/m 4,0 km/h (1 Bft) S-SW 202 4,3 C 6,3 C
17.10.2012 03:46 6,2 C 87 % 1012,3 hPa 0,0 l/m 5,4 km/h (1 Bft) S-SW 202 4,2 C 5,3 C
17.10.2012 03:51 6,2 C 87 % 1012,4 hPa 0,0 l/m 8,6 km/h (2 Bft) W-SW 247 4,2 C 4,4 C
17.10.2012 03:56 6,2 C 87 % 1012,3 hPa 0,0 l/m 5,8 km/h (2 Bft) S-SW 202 4,2 C 5,2 C
17.10.2012 04:01 6,1 C 87 % 1012,4 hPa 0,0 l/m 5,0 km/h (1 Bft) S 180 4,1 C 5,3 C
17.10.2012 04:06 6,1 C 87 % 1012,5 hPa 0,0 l/m 7,2 km/h (2 Bft) S-SW 202 4,1 C 4,6 C
17.10.2012 04:11 6,1 C 87 % 1012,6 hPa 0,0 l/m 5,4 km/h (1 Bft) S 180 4,1 C 5,2 C
17.10.2012 04:16 5,9 C 87 % 1012,6 hPa 0,0 l/m 6,1 km/h (2 Bft) S-SW 202 3,9 C 4,7 C
17.10.2012 04:21 5,9 C 87 % 1012,6 hPa 0,0 l/m 6,5 km/h (2 Bft) SW 225 3,9 C 4,6 C
17.10.2012 04:26 5,9 C 87 % 1012,6 hPa 0,0 l/m 6,1 km/h (2 Bft) S-SW 202 3,9 C 4,7 C
17.10.2012 04:31 5,9 C 87 % 1012,6 hPa 0,0 l/m 5,0 km/h (1 Bft) S-SW 202 3,9 C 5,1 C
17.10.2012 04:36 5,8 C 88 % 1012,5 hPa 0,0 l/m 4,7 km/h (1 Bft) S 180 4,0 C 5,1 C
17.10.2012 04:41 5,8 C 88 % 1012,6 hPa 0,0 l/m 5,4 km/h (1 Bft) S-SW 202 4,0 C 4,8 C
17.10.2012 04:46 5,8 C 88 % 1012,6 hPa 0,0 l/m 6,5 km/h (2 Bft) S 180 4,0 C 4,5 C
17.10.2012 04:51 5,8 C 88 % 1012,6 hPa 0,0 l/m 5,8 km/h (2 Bft) S-SW 202 4,0 C 4,7 C
17.10.2012 04:56 5,7 C 88 % 1012,5 hPa 0,0 l/m 4,7 km/h (1 Bft) SW 225 3,9 C 5,0 C
17.10.2012 05:01 5,6 C 88 % 1012,5 hPa 0,0 l/m 8,3 km/h (2 Bft) S-SW 202 3,8 C 3,8 C
17.10.2012 05:06 5,6 C 88 % 1012,6 hPa 0,0 l/m 4,0 km/h (1 Bft) SW 225 3,8 C 5,6 C
17.10.2012 05:11 5,5 C 88 % 1012,9 hPa 0,0 l/m 5,0 km/h (1 Bft) S-SW 202 3,7 C 4,7 C
17.10.2012 05:16 5,5 C 88 % 1012,8 hPa 0,0 l/m 6,8 km/h (2 Bft) SW 225 3,7 C 4,1 C
17.10.2012 05:21 5,4 C 88 % 1013,0 hPa 0,0 l/m 2,9 km/h (1 Bft) W-SW 247 3,6 C 5,4 C
17.10.2012 05:26 5,4 C 88 % 1013,1 hPa 0,0 l/m 4,0 km/h (1 Bft) S-SW 202 3,6 C 5,4 C
17.10.2012 05:31 5,4 C 89 % 1013,2 hPa 0,0 l/m 0,0 km/h (0 Bft) S 180 3,7 C 5,4 C
17.10.2012 05:36 5,3 C 89 % 1013,1 hPa 0,0 l/m 4,0 km/h (1 Bft) S 180 3,6 C 5,3 C
17.10.2012 05:41 5,3 C 88 % 1013,1 hPa 0,0 l/m 0,0 km/h (0 Bft) S-SW 202 3,5 C 5,3 C
17.10.2012 05:46 5,3 C 88 % 1013,3 hPa 0,0 l/m 4,3 km/h (1 Bft) S-SW 202 3,5 C 5,3 C
17.10.2012 05:51 5,2 C 88 % 1013,5 hPa 0,0 l/m 6,8 km/h (2 Bft) SW 225 3,4 C 3,7 C
17.10.2012 05:56 5,2 C 88 % 1013,5 hPa 0,0 l/m 3,2 km/h (1 Bft) S-SW 202 3,4 C 5,2 C
17.10.2012 06:01 5,2 C 88 % 1013,5 hPa 0,0 l/m 5,0 km/h (1 Bft) S-SW 202 3,4 C 4,3 C
17.10.2012 06:06 5,2 C 88 % 1013,5 hPa 0,0 l/m 4,0 km/h (1 Bft) S-SW 202 3,4 C 5,2 C
17.10.2012 06:11 5,1 C 88 % 1013,5 hPa 0,0 l/m 5,8 km/h (2 Bft) S 180 3,3 C 3,9 C
17.10.2012 06:16 5,1 C 89 % 1013,7 hPa 0,0 l/m 2,2 km/h (1 Bft) S-SO 157 3,4 C 5,1 C
17.10.2012 06:21 5,1 C 89 % 1013,7 hPa 0,0 l/m 5,0 km/h (1 Bft) S 180 3,4 C 4,2 C
17.10.2012 06:26 5,0 C 89 % 1013,5 hPa 0,0 l/m 9,4 km/h (2 Bft) S-SW 202 3,3 C 2,8 C
17.10.2012 06:31 4,9 C 89 % 1013,6 hPa 0,0 l/m 3,2 km/h (1 Bft) S 180 3,2 C 4,9 C
17.10.2012 06:36 4,9 C 89 % 1013,7 hPa 0,0 l/m 6,1 km/h (2 Bft) S-SW 202 3,2 C 3,6 C
17.10.2012 06:41 4,9 C 89 % 1013,8 hPa 0,0 l/m 6,5 km/h (2 Bft) S 180 3,2 C 3,4 C
17.10.2012 06:46 4,8 C 89 % 1013,7 hPa 0,0 l/m 3,6 km/h (1 Bft) S 180 3,1 C 4,8 C
17.10.2012 06:51 4,8 C 89 % 1013,5 hPa 0,0 l/m 8,6 km/h (2 Bft) SO 135 3,1 C 2,7 C
17.10.2012 06:56 4,8 C 89 % 1013,5 hPa 0,0 l/m 6,8 km/h (2 Bft) S-SW 202 3,1 C 3,2 C
17.10.2012 07:01 4,7 C 90 % 1013,4 hPa 0,0 l/m 8,3 km/h (2 Bft) S 180 3,2 C 2,7 C
17.10.2012 07:06 4,7 C 90 % 1013,2 hPa 0,0 l/m 2,2 km/h (1 Bft) SO 135 3,2 C 4,7 C
17.10.2012 07:11 4,6 C 90 % 1013,1 hPa 0,0 l/m 4,3 km/h (1 Bft) S 180 3,1 C 4,6 C
17.10.2012 07:16 4,7 C 90 % 1013,1 hPa 0,0 l/m 11,9 km/h (2 Bft) W-SW 247 3,2 C 1,9 C
17.10.2012 07:21 4,6 C 90 % 1013,1 hPa 0,0 l/m 2,2 km/h (1 Bft) S-SW 202 3,1 C 4,6 C
17.10.2012 07:26 4,6 C 90 % 1012,9 hPa 0,0 l/m 7,6 km/h (2 Bft) S 180 3,1 C 2,8 C
17.10.2012 07:31 4,7 C 90 % 1013,0 hPa 0,0 l/m 3,6 km/h (1 Bft) S-SO 157 3,2 C 4,7 C
17.10.2012 07:36 4,6 C 90 % 1013,1 hPa 0,0 l/m 7,9 km/h (2 Bft) S-SO 157 3,1 C 2,7 C
17.10.2012 07:41 4,6 C 90 % 1013,1 hPa 0,0 l/m 3,2 km/h (1 Bft) S-SW 202 3,1 C 4,6 C
17.10.2012 07:46 4,6 C 90 % 1013,1 hPa 0,0 l/m 4,7 km/h (1 Bft) S 180 3,1 C 3,8 C
17.10.2012 07:51 4,6 C 90 % 1013,3 hPa 0,0 l/m 8,3 km/h (2 Bft) S 180 3,1 C 2,6 C
17.10.2012 07:56 4,6 C 90 % 1013,5 hPa 0,0 l/m 6,1 km/h (2 Bft) S-SW 202 3,1 C 3,2 C
17.10.2012 08:01 4,7 C 90 % 1013,3 hPa 0,0 l/m 9,7 km/h (2 Bft) S 180 3,2 C 2,4 C
17.10.2012 08:06 4,8 C 90 % 1013,5 hPa 0,0 l/m 13,0 km/h (3 Bft) S-SW 202 3,3 C 1,8 C
17.10.2012 08:11 4,9 C 90 % 1013,6 hPa 0,0 l/m 10,8 km/h (2 Bft) S-SO 157 3,4 C 2,4 C
17.10.2012 08:16 5,0 C 91 % 1013,7 hPa 0,0 l/m 6,1 km/h (2 Bft) S 180 3,7 C 3,7 C
17.10.2012 08:21 5,1 C 91 % 1013,7 hPa 0,0 l/m 3,2 km/h (1 Bft) S-SO 157 3,8 C 5,1 C
17.10.2012 08:26 5,0 C 91 % 1013,5 hPa 0,0 l/m 11,2 km/h (2 Bft) S 180 3,7 C 2,4 C
17.10.2012 08:31 5,1 C 90 % 1013,6 hPa 0,0 l/m 6,5 km/h (2 Bft) S-SO 157 3,6 C 3,7 C
17.10.2012 08:36 5,1 C 91 % 1013,8 hPa 0,0 l/m 4,3 km/h (1 Bft) SO 135 3,8 C 5,1 C
17.10.2012 08:41 5,2 C 91 % 1013,7 hPa 0,0 l/m 5,4 km/h (1 Bft) SW 225 3,9 C 4,2 C
17.10.2012 08:46 5,3 C 91 % 1013,7 hPa 0,0 l/m 10,1 km/h (2 Bft) SW 225 4,0 C 3,0 C
17.10.2012 08:51 5,4 C 91 % 1013,7 hPa 0,0 l/m 3,6 km/h (1 Bft) S-SW 202 4,1 C 5,4 C
17.10.2012 08:56 5,5 C 91 % 1013,7 hPa 0,0 l/m 4,3 km/h (1 Bft) SW 225 4,2 C 5,5 C
17.10.2012 09:01 5,7 C 91 % 1013,8 hPa 0,0 l/m 7,6 km/h (2 Bft) S-SO 157 4,3 C 4,1 C
17.10.2012 09:06 5,8 C 91 % 1013,7 hPa 0,0 l/m 7,9 km/h (2 Bft) S-SW 202 4,4 C 4,1 C
17.10.2012 09:11 5,9 C 91 % 1013,6 hPa 0,0 l/m 6,5 km/h (2 Bft) S 180 4,5 C 4,6 C
17.10.2012 09:16 6,1 C 91 % 1013,5 hPa 0,0 l/m 6,1 km/h (2 Bft) SW 225 4,7 C 5,0 C
17.10.2012 09:21 6,2 C 91 % 1013,7 hPa 0,0 l/m 13,0 km/h (3 Bft) S 180 4,8 C 3,5 C
17.10.2012 09:26 6,3 C 91 % 1013,8 hPa 0,0 l/m 7,6 km/h (2 Bft) SW 225 4,9 C 4,8 C
17.10.2012 09:31 6,4 C 90 % 1013,8 hPa 0,0 l/m 11,2 km/h (2 Bft) S-SO 157 4,9 C 4,1 C
17.10.2012 09:36 6,7 C 90 % 1013,8 hPa 0,0 l/m 13,7 km/h (3 Bft) S 180 5,2 C 4,0 C
17.10.2012 09:41 6,8 C 90 % 1013,9 hPa 0,0 l/m 9,4 km/h (2 Bft) S 180 5,3 C 4,9 C
17.10.2012 09:46 6,9 C 90 % 1013,7 hPa 0,0 l/m 11,9 km/h (2 Bft) S 180 5,4 C 4,6 C
17.10.2012 09:51 7,1 C 90 % 1013,9 hPa 0,0 l/m 11,5 km/h (2 Bft) S 180 5,6 C 4,9 C
17.10.2012 09:56 7,3 C 89 % 1013,8 hPa 0,0 l/m 16,6 km/h (3 Bft) S-SW 202 5,6 C 4,4 C
17.10.2012 10:01 7,4 C 89 % 1013,9 hPa 0,0 l/m 7,6 km/h (2 Bft) S 180 5,7 C 6,0 C
17.10.2012 10:06 7,6 C 89 % 1013,9 hPa 0,0 l/m 7,6 km/h (2 Bft) SW 225 5,9 C 6,3 C
17.10.2012 10:11 7,8 C 88 % 1013,9 hPa 0,0 l/m 15,5 km/h (3 Bft) S-SW 202 5,9 C 5,1 C
17.10.2012 10:16 7,8 C 88 % 1013,8 hPa 0,0 l/m 6,8 km/h (2 Bft) S 180 5,9 C 6,7 C
17.10.2012 10:21 7,9 C 88 % 1013,8 hPa 0,0 l/m 14,8 km/h (3 Bft) SW 225 6,0 C 5,4 C
17.10.2012 10:26 8,1 C 88 % 1013,9 hPa 0,0 l/m 5,8 km/h (2 Bft) S-SO 157 6,2 C 7,3 C
17.10.2012 10:31 8,4 C 87 % 1013,8 hPa 0,0 l/m 5,8 km/h (2 Bft) S 180 6,4 C 7,7 C
17.10.2012 10:36 8,5 C 87 % 1013,8 hPa 0,0 l/m 8,6 km/h (2 Bft) W 270 6,5 C 7,1 C
17.10.2012 10:41 8,8 C 87 % 1014,0 hPa 0,0 l/m 11,9 km/h (2 Bft) S-SO 157 6,8 C 6,9 C
17.10.2012 10:46 8,9 C 87 % 1014,1 hPa 0,0 l/m 8,6 km/h (2 Bft) S-SW 202 6,9 C 7,6 C
17.10.2012 10:51 9,1 C 86 % 1014,3 hPa 0,0 l/m 17,3 km/h (3 Bft) S-SW 202 6,9 C 6,5 C
17.10.2012 10:56 9,3 C 86 % 1014,2 hPa 0,0 l/m 11,2 km/h (2 Bft) SW 225 7,1 C 7,6 C
17.10.2012 11:01 9,5 C 85 % 1014,1 hPa 0,0 l/m 6,5 km/h (2 Bft) S-SW 202 7,1 C 8,8 C
17.10.2012 11:06 9,6 C 85 % 1014,0 hPa 0,0 l/m 11,5 km/h (2 Bft) SW 225 7,2 C 7,9 C
17.10.2012 11:11 9,9 C 84 % 1014,2 hPa 0,0 l/m 13,7 km/h (3 Bft) S-SW 202 7,3 C 8,0 C
17.10.2012 11:16 10,1 C 83 % 1013,9 hPa 0,0 l/m 18,7 km/h (3 Bft) S-SO 157 7,3 C 10,1 C
17.10.2012 11:21 10,3 C 82 % 1013,9 hPa 0,0 l/m 5,8 km/h (2 Bft) SO 135 7,4 C 10,3 C
17.10.2012 11:26 10,5 C 82 % 1013,9 hPa 0,0 l/m 15,5 km/h (3 Bft) S 180 7,6 C 10,5 C
17.10.2012 11:31 10,6 C 81 % 1013,9 hPa 0,0 l/m 2,9 km/h (1 Bft) SW 225 7,5 C 10,6 C
17.10.2012 11:36 10,8 C 80 % 1013,9 hPa 0,0 l/m 9,4 km/h (2 Bft) S-SO 157 7,5 C 10,8 C
17.10.2012 11:41 10,9 C 80 % 1013,7 hPa 0,0 l/m 6,5 km/h (2 Bft) S-SW 202 7,6 C 10,9 C
17.10.2012 11:46 11,1 C 80 % 1013,7 hPa 0,0 l/m 10,1 km/h (2 Bft) S-SO 157 7,8 C 11,1 C
17.10.2012 11:51 11,3 C 79 % 1013,6 hPa 0,0 l/m 17,3 km/h (3 Bft) S-SO 157 7,8 C 11,3 C
17.10.2012 11:56 11,5 C 77 % 1013,6 hPa 0,0 l/m 7,9 km/h (2 Bft) SO 135 7,6 C 11,5 C
17.10.2012 12:01 11,6 C 76 % 1013,6 hPa 0,0 l/m 28,4 km/h (4 Bft) S-SO 157 7,5 C 11,6 C
17.10.2012 12:06 11,7 C 75 % 1013,6 hPa 0,0 l/m 7,9 km/h (2 Bft) S-SO 157 7,4 C 11,7 C
17.10.2012 12:11 11,8 C 75 % 1013,8 hPa 0,0 l/m 10,1 km/h (2 Bft) S-SO 157 7,5 C 11,8 C
17.10.2012 12:16 11,9 C 75 % 1013,7 hPa 0,0 l/m 16,9 km/h (3 Bft) S-SO 157 7,6 C 11,9 C
17.10.2012 12:21 12,1 C 74 % 1013,7 hPa 0,0 l/m 9,7 km/h (2 Bft) SO 135 7,6 C 12,1 C
17.10.2012 12:26 12,3 C 73 % 1013,5 hPa 0,0 l/m 6,5 km/h (2 Bft) S-SO 157 7,6 C 12,3 C
17.10.2012 12:31 12,4 C 72 % 1013,5 hPa 0,0 l/m 23,8 km/h (4 Bft) S 180 7,5 C 12,4 C
17.10.2012 12:36 12,5 C 72 % 1013,5 hPa 0,0 l/m 10,1 km/h (2 Bft) S-SO 157 7,6 C 12,5 C
17.10.2012 12:41 12,6 C 71 % 1013,4 hPa 0,0 l/m 6,5 km/h (2 Bft) SW 225 7,5 C 12,6 C
17.10.2012 12:46 12,7 C 71 % 1013,5 hPa 0,0 l/m 11,5 km/h (2 Bft) S-SO 157 7,6 C 12,7 C
17.10.2012 12:51 12,8 C 71 % 1013,4 hPa 0,0 l/m 8,3 km/h (2 Bft) SO 135 7,7 C 12,8 C
17.10.2012 12:56 12,9 C 70 % 1013,2 hPa 0,0 l/m 6,5 km/h (2 Bft) S-SO 157 7,6 C 12,9 C
17.10.2012 13:01 12,9 C 70 % 1013,2 hPa 0,0 l/m 13,0 km/h (3 Bft) SO 135 7,6 C 12,9 C
17.10.2012 13:06 12,9 C 70 % 1013,3 hPa 0,0 l/m 12,2 km/h (2 Bft) S 180 7,6 C 12,9 C
17.10.2012 13:11 13,1 C 69 % 1013,3 hPa 0,0 l/m 6,5 km/h (2 Bft) SO 135 7,5 C 13,1 C
17.10.2012 13:16 13,3 C 69 % 1013,2 hPa 0,0 l/m 11,5 km/h (2 Bft) S-SW 202 7,7 C 13,3 C
17.10.2012 13:21 13,5 C 69 % 1013,0 hPa 0,0 l/m 4,7 km/h (1 Bft) S-SO 157 7,9 C 13,5 C
17.10.2012 13:26 13,7 C 68 % 1012,7 hPa 0,0 l/m 15,1 km/h (3 Bft) S 180 7,9 C 13,7 C
17.10.2012 13:31 14,0 C 67 % 1012,8 hPa 0,0 l/m 7,6 km/h (2 Bft) S 180 8,0 C 14,0 C
17.10.2012 13:36 14,3 C 66 % 1012,8 hPa 0,0 l/m 10,8 km/h (2 Bft) SW 225 8,0 C 14,3 C
17.10.2012 13:41 14,5 C 65 % 1012,9 hPa 0,0 l/m 11,5 km/h (2 Bft) SW 225 8,0 C 14,5 C
17.10.2012 13:46 14,5 C 65 % 1012,7 hPa 0,0 l/m 10,8 km/h (2 Bft) S-SW 202 8,0 C 14,5 C
17.10.2012 13:51 14,4 C 65 % 1012,7 hPa 0,0 l/m 7,2 km/h (2 Bft) SO 135 7,9 C 14,4 C
17.10.2012 13:56 14,4 C 66 % 1012,7 hPa 0,0 l/m 13,3 km/h (3 Bft) S 180 8,1 C 14,4 C
17.10.2012 14:01 14,4 C 65 % 1012,6 hPa 0,0 l/m 22,3 km/h (4 Bft) S-SO 157 7,9 C 14,4 C
17.10.2012 14:06 14,3 C 65 % 1012,8 hPa 0,0 l/m 10,1 km/h (2 Bft) S 180 7,8 C 14,3 C
17.10.2012 14:11 14,1 C 66 % 1012,7 hPa 0,0 l/m 11,2 km/h (2 Bft) S-SW 202 7,8 C 14,1 C
17.10.2012 14:16 14,1 C 67 % 1012,5 hPa 0,0 l/m 6,1 km/h (2 Bft) S 180 8,1 C 14,1 C
17.10.2012 14:21 14,1 C 67 % 1012,6 hPa 0,0 l/m 16,6 km/h (3 Bft) S 180 8,1 C 14,1 C
17.10.2012 14:26 14,1 C 66 % 1012,6 hPa 0,0 l/m 14,4 km/h (3 Bft) S-SO 157 7,8 C 14,1 C
17.10.2012 14:31 14,1 C 66 % 1012,4 hPa 0,0 l/m 9,0 km/h (2 Bft) S-SW 202 7,8 C 14,1 C
17.10.2012 14:36 13,9 C 67 % 1012,5 hPa 0,0 l/m 7,6 km/h (2 Bft) S 180 7,9 C 13,9 C
17.10.2012 14:41 14,1 C 67 % 1012,4 hPa 0,0 l/m 5,8 km/h (2 Bft) S-SO 157 8,1 C 14,1 C
17.10.2012 14:46 14,1 C 67 % 1012,4 hPa 0,0 l/m 12,2 km/h (2 Bft) S-SO 157 8,1 C 14,1 C
17.10.2012 14:51 14,2 C 67 % 1012,3 hPa 0,0 l/m 6,1 km/h (2 Bft) S 180 8,2 C 14,2 C
17.10.2012 14:56 14,2 C 67 % 1012,3 hPa 0,0 l/m 18,7 km/h (3 Bft) S-SW 202 8,2 C 14,2 C
17.10.2012 15:01 14,1 C 67 % 1012,4 hPa 0,0 l/m 5,8 km/h (2 Bft) SO 135 8,1 C 14,1 C
17.10.2012 15:06 14,0 C 67 % 1012,6 hPa 0,0 l/m 16,6 km/h (3 Bft) S-SW 202 8,0 C 14,0 C
17.10.2012 15:11 13,9 C 67 % 1012,5 hPa 0,0 l/m 10,8 km/h (2 Bft) S-SO 157 7,9 C 13,9 C
17.10.2012 15:16 13,9 C 67 % 1012,6 hPa 0,0 l/m 9,7 km/h (2 Bft) S-SO 157 7,9 C 13,9 C
17.10.2012 15:21 13,9 C 68 % 1012,6 hPa 0,0 l/m 7,2 km/h (2 Bft) S 180 8,1 C 13,9 C
17.10.2012 15:26 13,9 C 68 % 1012,5 hPa 0,0 l/m 6,1 km/h (2 Bft) S-SO 157 8,1 C 13,9 C
17.10.2012 15:31 13,8 C 68 % 1012,2 hPa 0,0 l/m 10,4 km/h (2 Bft) S 180 8,0 C 13,8 C
17.10.2012 15:36 13,8 C 69 % 1012,2 hPa 0,0 l/m 13,7 km/h (3 Bft) S-SO 157 8,2 C 13,8 C
17.10.2012 15:41 13,8 C 69 % 1012,1 hPa 0,0 l/m 5,4 km/h (1 Bft) S-SW 202 8,2 C 13,8 C
17.10.2012 15:46 13,8 C 69 % 1012,1 hPa 0,0 l/m 25,2 km/h (4 Bft) S 180 8,2 C 13,8 C
17.10.2012 15:51 13,8 C 69 % 1012,1 hPa 0,0 l/m 13,7 km/h (3 Bft) S-SO 157 8,2 C 13,8 C
17.10.2012 15:56 13,9 C 70 % 1012,0 hPa 0,0 l/m 6,1 km/h (2 Bft) S 180 8,5 C 13,9 C
17.10.2012 16:01 13,9 C 70 % 1011,9 hPa 0,0 l/m 7,2 km/h (2 Bft) S-SW 202 8,5 C 13,9 C
17.10.2012 16:06 13,9 C 71 % 1011,9 hPa 0,0 l/m 9,4 km/h (2 Bft) SO 135 8,7 C 13,9 C
17.10.2012 16:11 13,9 C 71 % 1012,0 hPa 0,0 l/m 16,2 km/h (3 Bft) S 180 8,7 C 13,9 C
17.10.2012 16:16 13,8 C 72 % 1011,8 hPa 0,0 l/m 4,3 km/h (1 Bft) S-SO 157 8,8 C 13,8 C
17.10.2012 16:21 13,6 C 72 % 1011,9 hPa 0,0 l/m 9,0 km/h (2 Bft) S-SO 157 8,6 C 13,6 C
17.10.2012 16:26 13,5 C 73 % 1011,8 hPa 0,0 l/m 5,4 km/h (1 Bft) S 180 8,8 C 13,5 C
17.10.2012 16:31 13,4 C 73 % 1011,9 hPa 0,0 l/m 6,1 km/h (2 Bft) S 180 8,7 C 13,4 C
17.10.2012 16:36 13,4 C 74 % 1011,7 hPa 0,0 l/m 7,2 km/h (2 Bft) S 180 8,9 C 13,4 C
17.10.2012 16:41 13,3 C 74 % 1011,7 hPa 0,0 l/m 5,0 km/h (1 Bft) S 180 8,8 C 13,3 C
17.10.2012 16:46 13,3 C 75 % 1011,6 hPa 0,0 l/m 5,4 km/h (1 Bft) S-SO 157 9,0 C 13,3 C
17.10.2012 16:51 13,3 C 75 % 1011,8 hPa 0,0 l/m 4,0 km/h (1 Bft) S 180 9,0 C 13,3 C
17.10.2012 16:56 13,3 C 75 % 1011,6 hPa 0,0 l/m 4,3 km/h (1 Bft) S-SW 202 9,0 C 13,3 C
17.10.2012 17:01 13,3 C 75 % 1011,6 hPa 0,0 l/m 6,5 km/h (2 Bft) S 180 9,0 C 13,3 C
17.10.2012 17:06 13,2 C 75 % 1011,4 hPa 0,0 l/m 6,1 km/h (2 Bft) SO 135 8,9 C 13,2 C
17.10.2012 17:11 13,2 C 75 % 1011,5 hPa 0,0 l/m 4,7 km/h (1 Bft) S-SW 202 8,9 C 13,2 C
17.10.2012 17:16 13,1 C 76 % 1011,6 hPa 0,0 l/m 9,7 km/h (2 Bft) S 180 9,0 C 13,1 C
17.10.2012 17:21 13,1 C 76 % 1011,5 hPa 0,0 l/m 14,4 km/h (3 Bft) S 180 9,0 C 13,1 C
17.10.2012 17:26 13,1 C 76 % 1011,4 hPa 0,0 l/m 10,8 km/h (2 Bft) S-SO 157 9,0 C 13,1 C
17.10.2012 17:31 13,1 C 76 % 1011,3 hPa 0,0 l/m 13,0 km/h (3 Bft) SO 135 9,0 C 13,1 C
17.10.2012 17:36 13,0 C 76 % 1011,4 hPa 0,0 l/m 13,0 km/h (3 Bft) S 180 8,9 C 13,0 C
17.10.2012 17:41 13,0 C 76 % 1011,4 hPa 0,0 l/m 8,6 km/h (2 Bft) S-SO 157 8,9 C 13,0 C
17.10.2012 17:46 13,0 C 76 % 1011,3 hPa 0,0 l/m 12,6 km/h (3 Bft) S-SW 202 8,9 C 13,0 C
17.10.2012 17:51 12,9 C 76 % 1011,4 hPa 0,0 l/m 9,7 km/h (2 Bft) S-SO 157 8,8 C 12,9 C
17.10.2012 17:56 12,9 C 76 % 1011,5 hPa 0,0 l/m 5,8 km/h (2 Bft) S 180 8,8 C 12,9 C
17.10.2012 18:01 12,9 C 76 % 1011,3 hPa 0,0 l/m 9,7 km/h (2 Bft) S-SO 157 8,8 C 12,9 C
17.10.2012 18:06 12,9 C 76 % 1011,4 hPa 0,0 l/m 6,8 km/h (2 Bft) O-SO 112 8,8 C 12,9 C
17.10.2012 18:11 12,9 C 76 % 1011,4 hPa 0,0 l/m 5,0 km/h (1 Bft) S-SO 157 8,8 C 12,9 C
17.10.2012 18:16 12,9 C 76 % 1011,3 hPa 0,0 l/m 10,4 km/h (2 Bft) S 180 8,8 C 12,9 C
17.10.2012 18:21 12,9 C 76 % 1011,2 hPa 0,0 l/m 6,1 km/h (2 Bft) S 180 8,8 C 12,9 C
17.10.2012 18:26 12,9 C 76 % 1011,2 hPa 0,0 l/m 8,6 km/h (2 Bft) S-SO 157 8,8 C 12,9 C
17.10.2012 18:31 12,9 C 76 % 1011,2 hPa 0,0 l/m 4,3 km/h (1 Bft) S-SO 157 8,8 C 12,9 C
17.10.2012 18:36 12,9 C 76 % 1011,3 hPa 0,0 l/m 6,8 km/h (2 Bft) SO 135 8,8 C 12,9 C
17.10.2012 18:41 12,9 C 76 % 1011,3 hPa 0,0 l/m 5,4 km/h (1 Bft) O-SO 112 8,8 C 12,9 C
17.10.2012 18:46 12,9 C 76 % 1011,3 hPa 0,0 l/m 13,3 km/h (3 Bft) SO 135 8,8 C 12,9 C
17.10.2012 18:51 12,9 C 77 % 1011,4 hPa 0,0 l/m 6,5 km/h (2 Bft) SO 135 9,0 C 12,9 C
17.10.2012 18:56 12,9 C 76 % 1011,6 hPa 0,0 l/m 3,6 km/h (1 Bft) SO 135 8,8 C 12,9 C
17.10.2012 19:01 12,9 C 76 % 1011,6 hPa 0,0 l/m 4,0 km/h (1 Bft) S-SO 157 8,8 C 12,9 C
17.10.2012 19:06 12,9 C 77 % 1011,5 hPa 0,0 l/m 4,3 km/h (1 Bft) S-SO 157 9,0 C 12,9 C
17.10.2012 19:11 12,9 C 77 % 1011,4 hPa 0,0 l/m 1,4 km/h (1 Bft) S-SO 157 9,0 C 12,9 C
17.10.2012 19:16 12,8 C 77 % 1011,3 hPa 0,0 l/m 9,0 km/h (2 Bft) S 180 8,9 C 12,8 C
17.10.2012 19:21 12,8 C 77 % 1011,4 hPa 0,0 l/m 1,8 km/h (1 Bft) S 180 8,9 C 12,8 C
17.10.2012 19:26 12,7 C 77 % 1011,6 hPa 0,0 l/m 8,3 km/h (2 Bft) SO 135 8,8 C 12,7 C
17.10.2012 19:31 12,6 C 77 % 1011,7 hPa 0,0 l/m 4,0 km/h (1 Bft) SO 135 8,7 C 12,6 C
17.10.2012 19:36 12,6 C 77 % 1011,7 hPa 0,0 l/m 8,3 km/h (2 Bft) S-SO 157 8,7 C 12,6 C
17.10.2012 19:41 12,7 C 77 % 1011,6 hPa 0,0 l/m 3,2 km/h (1 Bft) S-SO 157 8,8 C 12,7 C
17.10.2012 19:46 12,7 C 77 % 1011,6 hPa 0,0 l/m 0,0 km/h (0 Bft) S-SO 157 8,8 C 12,7 C
17.10.2012 19:51 12,6 C 77 % 1011,7 hPa 0,0 l/m 3,6 km/h (1 Bft) S 180 8,7 C 12,6 C
17.10.2012 19:56 12,6 C 77 % 1011,7 hPa 0,0 l/m 2,9 km/h (1 Bft) S-SO 157 8,7 C 12,6 C
17.10.2012 20:01 12,6 C 77 % 1011,6 hPa 0,0 l/m 3,6 km/h (1 Bft) S 180 8,7 C 12,6 C
17.10.2012 20:06 12,6 C 78 % 1011,6 hPa 0,0 l/m 0,0 km/h (0 Bft) S-SO 157 8,9 C 12,6 C
17.10.2012 20:11 12,5 C 78 % 1011,5 hPa 0,0 l/m 2,2 km/h (1 Bft) S-SO 157 8,8 C 12,5 C
17.10.2012 20:16 12,5 C 78 % 1011,5 hPa 0,0 l/m 2,5 km/h (1 Bft) S-SO 157 8,8 C 12,5 C
17.10.2012 20:21 12,5 C 78 % 1011,6 hPa 0,0 l/m 0,0 km/h (0 Bft) S-SO 157 8,8 C 12,5 C
17.10.2012 20:26 12,4 C 78 % 1011,5 hPa 0,0 l/m 0,0 km/h (0 Bft) S 180 8,7 C 12,4 C
17.10.2012 20:31 12,4 C 78 % 1011,7 hPa 0,0 l/m 7,2 km/h (2 Bft) S 180 8,7 C 12,4 C
17.10.2012 20:36 12,4 C 79 % 1011,6 hPa 0,0 l/m 3,6 km/h (1 Bft) S 180 8,9 C 12,4 C
17.10.2012 20:41 12,3 C 79 % 1011,6 hPa 0,0 l/m 2,5 km/h (1 Bft) S-SO 157 8,8 C 12,3 C
17.10.2012 20:46 12,3 C 79 % 1011,6 hPa 0,0 l/m 0,0 km/h (0 Bft) S 180 8,8 C 12,3 C
17.10.2012 20:51 12,3 C 79 % 1011,5 hPa 0,0 l/m 2,9 km/h (1 Bft) S 180 8,8 C 12,3 C
17.10.2012 20:56 12,2 C 79 % 1011,6 hPa 0,0 l/m 1,4 km/h (1 Bft) S 180 8,7 C 12,2 C
17.10.2012 21:01 12,2 C 79 % 1011,7 hPa 0,0 l/m 1,4 km/h (1 Bft) SO 135 8,7 C 12,2 C
17.10.2012 21:06 12,1 C 80 % 1011,8 hPa 0,0 l/m 2,5 km/h (1 Bft) SW 225 8,8 C 12,1 C
17.10.2012 21:11 12,1 C 80 % 1011,8 hPa 0,0 l/m 3,2 km/h (1 Bft) S-SO 157 8,8 C 12,1 C
17.10.2012 21:16 12,1 C 80 % 1012,0 hPa 0,0 l/m 0,0 km/h (0 Bft) S 180 8,8 C 12,1 C
17.10.2012 21:21 12,1 C 80 % 1012,0 hPa 0,0 l/m 1,8 km/h (1 Bft) SO 135 8,8 C 12,1 C
17.10.2012 21:26 12,2 C 80 % 1012,0 hPa 0,0 l/m 5,8 km/h (2 Bft) S-SW 202 8,9 C 12,2 C
17.10.2012 21:31 12,2 C 80 % 1011,9 hPa 0,0 l/m 4,7 km/h (1 Bft) S-SW 202 8,9 C 12,2 C
17.10.2012 21:36 12,2 C 80 % 1011,9 hPa 0,0 l/m 1,1 km/h (1 Bft) S 180 8,9 C 12,2 C
17.10.2012 21:41 12,2 C 80 % 1012,0 hPa 0,0 l/m 0,0 km/h (0 Bft) S-SO 157 8,9 C 12,2 C
17.10.2012 21:46 12,1 C 80 % 1012,1 hPa 0,0 l/m 2,5 km/h (1 Bft) S 180 8,8 C 12,1 C
17.10.2012 21:51 12,2 C 80 % 1012,0 hPa 0,0 l/m 6,1 km/h (2 Bft) S 180 8,9 C 12,2 C
17.10.2012 21:56 12,2 C 80 % 1012,1 hPa 0,0 l/m 3,2 km/h (1 Bft) S-SW 202 8,9 C 12,2 C
17.10.2012 22:01 12,2 C 80 % 1012,1 hPa 0,0 l/m 2,9 km/h (1 Bft) S-SO 157 8,9 C 12,2 C
17.10.2012 22:06 12,3 C 80 % 1012,2 hPa 0,0 l/m 6,8 km/h (2 Bft) W-SW 247 8,9 C 12,3 C
17.10.2012 22:11 12,3 C 80 % 1012,2 hPa 0,0 l/m 2,5 km/h (1 Bft) S-SO 157 8,9 C 12,3 C
17.10.2012 22:16 12,3 C 80 % 1012,4 hPa 0,0 l/m 10,1 km/h (2 Bft) S-SW 202 8,9 C 12,3 C
17.10.2012 22:21 12,4 C 80 % 1012,5 hPa 0,0 l/m 2,5 km/h (1 Bft) S-SW 202 9,0 C 12,4 C
17.10.2012 22:26 12,4 C 80 % 1012,3 hPa 0,0 l/m 0,0 km/h (0 Bft) S-SW 202 9,0 C 12,4 C
17.10.2012 22:31 12,4 C 80 % 1012,3 hPa 0,0 l/m 10,8 km/h (2 Bft) S-SO 157 9,0 C 12,4 C
17.10.2012 22:36 12,3 C 80 % 1012,3 hPa 0,0 l/m 11,2 km/h (2 Bft) S-SW 202 8,9 C 12,3 C
17.10.2012 22:41 12,3 C 80 % 1012,4 hPa 0,0 l/m 4,7 km/h (1 Bft) S-SW 202 8,9 C 12,3 C
17.10.2012 22:46 12,3 C 80 % 1012,4 hPa 0,0 l/m 4,0 km/h (1 Bft) S-SW 202 8,9 C 12,3 C
17.10.2012 22:51 12,2 C 80 % 1012,3 hPa 0,0 l/m 2,5 km/h (1 Bft) S-SO 157 8,9 C 12,2 C
17.10.2012 22:56 12,2 C 80 % 1012,4 hPa 0,0 l/m 3,2 km/h (1 Bft) SO 135 8,9 C 12,2 C
17.10.2012 23:01 12,1 C 80 % 1012,4 hPa 0,0 l/m 6,5 km/h (2 Bft) S 180 8,8 C 12,1 C
17.10.2012 23:06 12,2 C 80 % 1012,6 hPa 0,0 l/m 4,7 km/h (1 Bft) SO 135 8,9 C 12,2 C
17.10.2012 23:11 12,2 C 80 % 1012,5 hPa 0,0 l/m 5,0 km/h (1 Bft) S-SO 157 8,9 C 12,2 C
17.10.2012 23:16 12,2 C 80 % 1012,7 hPa 0,0 l/m 4,0 km/h (1 Bft) S-SW 202 8,9 C 12,2 C
17.10.2012 23:21 12,2 C 80 % 1012,7 hPa 0,0 l/m 2,5 km/h (1 Bft) S-SW 202 8,9 C 12,2 C
17.10.2012 23:26 12,3 C 80 % 1012,6 hPa 0,0 l/m 3,6 km/h (1 Bft) SW 225 8,9 C 12,3 C
17.10.2012 23:31 12,3 C 80 % 1012,6 hPa 0,0 l/m 0,0 km/h (0 Bft) S-SO 157 8,9 C 12,3 C
17.10.2012 23:36 12,4 C 79 % 1012,5 hPa 0,0 l/m 5,4 km/h (1 Bft) SW 225 8,9 C 12,4 C
17.10.2012 23:41 12,4 C 79 % 1012,7 hPa 0,0 l/m 2,2 km/h (1 Bft) S 180 8,9 C 12,4 C
17.10.2012 23:46 12,4 C 79 % 1012,7 hPa 0,0 l/m 4,3 km/h (1 Bft) S-SW 202 8,9 C 12,4 C
17.10.2012 23:51 12,4 C 79 % 1012,5 hPa 0,0 l/m 6,5 km/h (2 Bft) SW 225 8,9 C 12,4 C
17.10.2012 23:56 12,4 C 79 % 1012,5 hPa 0,0 l/m 6,5 km/h (2 Bft) S-SW 202 8,9 C 12,4 C
_ Min-Zeit 07:11 13:41 00:01 - 05:31 - - 07:11 08:06
Minimum _ 4,6 C 65 % 1010,7 hPa - 0,0 km/h (0 Bft) - - 3,1 C 1,8 C
_ Max-Zeit 13:41 08:16 10:51 00:01 12:01 - - 22:21 13:41
Maximum _ 14,5 C 91 % 1014,3 hPa 0,0 l/m 28,4 km/h
S-SO (4 Bft)
- - 9,0 C 14,5 C
Durchschnitt _ 9,8 C 81 % 1012,5 hPa #0,0 l/m 7,0 km/h (2 Bft) S - 6,6 C 9,4 C
(c) by David Heller